Regional Weather Roundup
Issued by NWS

Home | Current Version | Previous Version | Text Only | Print | Product List | Glossary On
Versions: 1 2 3 4 5 6 7 8 9 10 11 12 13 14 15 16 17 18 19 20 21 22 23 24 25 26 27 28 29 30 31 32 33 34 35 36 37 38 39 40 41 42 43 44 45 46 47 48 49 50
000
ASUS43 KDTX 050001
RWRMI
MICHIGAN HOURLY REGIONAL WEATHER ROUNDUP
NATIONAL WEATHER SERVICE DETROIT/PONTIAC MI
800 PM EDT MON MAY 04 2015

NOTE: "FAIR" INDICATES FEW OR NO CLOUDS BELOW 12,000 FEET WITH NO
SIGNIFICANT WEATHER AND/OR OBSTRUCTION TO VISIBILITY.

MIZ047>049-052>055-059>063-066>070-074>076-081>083-050100-
SOUTHEAST LOWER MICHIGAN

CITY           SKY/WX    TMP DP  RH WIND       PRES   REMARKS
ADRIAN         MOCLDY    71  59  65 SW9       30.13R
6HR MIN TEMP:  66; 6HR MAX TEMP:  75;

ALMA           MOCLDY    71  41  33 N7        30.12R
ANN ARBOR      CLOUDY    74  55  51 N9        30.11R
BAD AXE        PTCLDY    62  51  67 NE12      30.14R
CARO           PTCLDY    70  55  57 CALM      30.11S
DETROIT CITY   PTCLDY    74  57  55 W3        30.10S
6HR MIN TEMP:  70; 6HR MAX TEMP:  74;

DETROIT        RAIN      75  59  57 SW10      30.11R
6HR MIN TEMP:  72; 6HR MAX TEMP:  77; 6HR PCP: TRACE;

FLINT          PTCLDY    72  56  57 NW6       30.12R
6HR MIN TEMP:  72; 6HR MAX TEMP:  76;

GROSSE ILE     MOCLDY    64  61  88 S10       30.10R
HILLSDALE      MOCLDY    71  54  54 W6        30.14S
6HR MIN TEMP:  71; 6HR MAX TEMP:  77;

HOWELL         PTCLDY    71  53  52 NW5       30.12S
6HR MIN TEMP:  71; 6HR MAX TEMP:  76;


CITY           SKY/WX    TMP DP  RH WIND       PRES   REMARKS
JACKSON        MOCLDY    72  54  53 W5        30.12R
6HR MIN TEMP:  72; 6HR MAX TEMP:  76;

LAMBERTVILLE   MOCLDY    70  61  73 W5        30.14R
LANSING        PTCLDY    72  53  51 W6        30.12S
6HR MIN TEMP:  71; 6HR MAX TEMP:  75;

LAPEER         FAIR      70  55  59 CALM      30.12R
MASON          PTCLDY    70  54  56 NW7       30.12R
MONROE         MOCLDY    70  61  73 SW7       30.11R
MT. CLEMENS    PTCLDY    71  56  57 N8        30.09R
6HR MIN TEMP:  71; 6HR MAX TEMP:  76;

PONTIAC        MOCLDY    71  53  52 NW7       30.11R
6HR MIN TEMP:  71; 6HR MAX TEMP:  76;

PORT HOPE        N/A     53  44  71 N3        30.14R
6HR MIN TEMP:  53; 6HR MAX TEMP:  69;

PORT HURON     PTCLDY    63  55  77 E6        30.14R
TRI CITIES     PTCLDY    71  42  35 N10       30.12R
6HR MIN TEMP:  70; 6HR MAX TEMP:  77;

MIDLAND        FAIR      70  35  27 NW13G18   30.12R
TROY           PTCLDY    75  52  44 NW5       30.13R
SAGINAW HB     PTCLDY    72  43  35 NW8       30.11R
$$
MIZ043>046-050>051-056>058-064>065-071>073-077>080-050100-
SOUTHWEST LOWER MICHIGAN

CITY           SKY/WX    TMP DP  RH WIND       PRES   REMARKS
BATTLE CREEK   MOCLDY    70  54  56 W6        30.15R
6HR MIN TEMP:  70; 6HR MAX TEMP:  75;

BENTON HARBOR  MOCLDY    61  52  72 NW6       30.15S
6HR MIN TEMP:  59; 6HR MAX TEMP:  65;

BIG RAPIDS     PTCLDY    65  38  36 N13G22    30.15R
6HR MIN TEMP:  65; 6HR MAX TEMP:  74;

COLDWATER      MOCLDY    68  55  62 W7        30.14S
6HR MIN TEMP:  68; 6HR MAX TEMP:  74;

FREMONT        FAIR      67  33  28 N13       30.14R
HOLLAND        PTCLDY    61  46  57 W6        30.15S
6HR MIN TEMP:  57; 6HR MAX TEMP:  63;

GRAND RAPIDS   PTCLDY    69  51  52 W10       30.13R
6HR MIN TEMP:  69; 6HR MAX TEMP:  74;

IONIA          FAIR      71  54  54 W12       30.12R
KALAMAZOO      MOCLDY    69  54  58 W3        30.15R
6HR MIN TEMP:  69; 6HR MAX TEMP:  75;

LUDINGTON      MOCLDY    66  32  28 NE5       30.18R
6HR MIN TEMP:  66; 6HR MAX TEMP:  71;

MARSHALL       CLOUDY    70  55  60 W15       30.13R
MOUNT PLEASANT CLEAR     67  36  31 N8        30.13R
6HR MIN TEMP:  67; 6HR MAX TEMP:  76;

MUSKEGON       MOCLDY    58  41  53 SW3       30.14R
6HR MIN TEMP:  58; 6HR MAX TEMP:  64;

SOUTH HAVEN    MOCLDY    63  52  67 NW3       30.16R
$$
MIZ016>042-050100-
NORTHERN LOWER MICHIGAN

CITY           SKY/WX    TMP DP  RH WIND       PRES   REMARKS
ALPENA         CLEAR     63  32  31 N14       30.16R
6HR MIN TEMP:  63; 6HR MAX TEMP:  73;

BEAVER ISLAND  CLEAR     52  32  46 NW7       30.21S
6HR MIN TEMP:  52; 6HR MAX TEMP:  61;

BELLAIRE       PTCLDY    60  36  41 NW5       30.20S
6HR MIN TEMP:  60; 6HR MAX TEMP:  66;

CADILLAC       PTCLDY    59  30  33 N6        30.18S
CHARLEVOIX     CLEAR     54  36  50 NW3       30.23S
6HR MIN TEMP:  53; 6HR MAX TEMP:  60;

FRANKFORT      MOCLDY    62  26  25 NE7       30.19S
GAYLORD        CLEAR     58  33  39 NW7       30.19R
6HR MIN TEMP:  58; 6HR MAX TEMP:  68;

GRAYLING       PTCLDY    60  33  36 NW9       30.19R
6HR MIN TEMP:  60; 6HR MAX TEMP:  71;

HARBOR SPRINGS CLEAR     46  36  67 CALM      30.20R
HOUGHTON LAKE  PTCLDY    61  37  41 NW10      30.17R
6HR MIN TEMP:  61; 6HR MAX TEMP:  72;

MANISTEE       MOCLDY    64  32  29 NE6       30.19R
OSCODA         PTCLDY    60  39  45 E6        30.14R
PELLSTON       CLEAR     59  32  36 NW10      30.20R
6HR MIN TEMP:  59; 6HR MAX TEMP:  69;

ROGERS CITY    CLEAR     56  35  43 NW12G17   30.18R
TRAVERSE CITY  MOCLDY    54  38  54 NE6       30.20R
6HR MIN TEMP:  54; 6HR MAX TEMP:  65;

$$
MIZ007>008-015-050100-
EASTERN UPPER MICHIGAN

CITY           SKY/WX    TMP DP  RH WIND       PRES   REMARKS
KINROSS        CLEAR     50  39  66 N9        30.19R
6HR MIN TEMP:  50; 6HR MAX TEMP:  61;

MACKINAC ISLAN CLEAR     55  39  55 N8        30.19R
6HR MIN TEMP:  55; 6HR MAX TEMP:  66;

NEWBERRY       PTCLDY    53  37  53 NW8G16    30.20S
6HR MIN TEMP:  53; 6HR MAX TEMP:  61;

S. S. MARIE    PTCLDY    46  37  71 NW13      30.20R
6HR MIN TEMP:  46; 6HR MAX TEMP:  59;

MUNISING         N/A     50  36  58 CALM      30.22S
6HR MIN TEMP:  46; 6HR MAX TEMP:  53;

$$
MIZ004>006-011>014-085-050100-
CENTRAL UPPER MICHIGAN

CITY           SKY/WX    TMP DP  RH WIND       PRES   REMARKS
MANISTIQUE     CLEAR     56  33  42 N8        30.21R
6HR MIN TEMP:  56; 6HR MAX TEMP:  62;

ESCANABA       PTCLDY    59  34  38 NE8       30.20R
6HR MIN TEMP:  59; 6HR MAX TEMP:  64;

MENOMINEE      PTCLDY    57  37  47 SE9       30.19R
6HR MIN TEMP:  57; 6HR MAX TEMP:  64;

SAWYER-GWINN   CLEAR     55  32  41 NE9       30.21S
$$
MIZ001>003-009>011-084-050100-
WESTERN UPPER MICHIGAN

CITY           SKY/WX    TMP DP  RH WIND       PRES   REMARKS
IRON MOUNTAIN  CLEAR     65  26  23 N7        30.17R
6HR MIN TEMP:  64; 6HR MAX TEMP:  69;

HOUGHTON       MOSUNNY   60  30  32 W7        30.19S
6HR MIN TEMP:  57; 6HR MAX TEMP:  61;

COPPER HARBOR    N/A     51  38  60 CALM      30.19S
6HR MIN TEMP:  47; 6HR MAX TEMP:  55;

IRONWOOD       PTSUNNY   61  18  18 SE3       30.18S
6HR MIN TEMP:  57; 6HR MAX TEMP:  61;

$$

ABBREVIATIONS USED IN REMARKS
   TC - TEMPERATURE IN CELSIUS
  WCI - WIND CHILL INDEX
   HX - HEAT INDEX
  VSB - VISIBILITY



USA.gov is the U.S. government's official web portal to all federal, state and local government web resources and services.